Location: Whitehorse
(60.7170°N, 135.0500°W)
Time: 05:55:12
(UTC-08:00)

Envisat - Pass Details

Date: 28 October 2019
Orbit: 764 x 766 km, 98.1° (Epoch: 17 November)

Event Time Altitude Azimuth Distance (km) Brightness Sun altitude
Rises 18:57:49 0° 145° (SE) 3,228 6.0 -6.1°
Reaches altitude 10° 19:00:09 10° 142° (SE) 2,305 5.3 -6.3°
Maximum altitude 19:05:07 58° 64° (ENE) 895 3.1 -6.9°
Drops below altitude 10° 19:10:07 10° 347° (NNW) 2,318 5.5 -7.5°
Sets 19:12:28 0° 343° (NNW) 3,248 6.3 -7.8°
